Time,TemperatureF,DewpointF,PressureIn,WindDirection,WindDirectionDegrees,WindSpeedMPH,WindSpeedGustMPH,Humidity,HourlyPrecipIn,Conditions,Clouds,dailyrainin,SoftwareType,DateUTC
2017-06-27 00:02:00,57.7,49.8,29.97,NW,315,0.0,0.0,75,0.00,,,0.00,meteobridge,2017-06-27 04:02:00,
2017-06-27 00:08:00,57.6,50.0,29.97,WSW,248,0.0,0.0,76,0.00,,,0.00,meteobridge,2017-06-27 04:08:00,
2017-06-27 00:13:00,57.6,50.0,29.97,SSE,158,0.0,1.6,76,0.00,,,0.00,meteobridge,2017-06-27 04:13:00,
2017-06-27 00:18:00,57.4,49.8,29.97,North,0,0.0,1.3,76,0.00,,,0.00,meteobridge,2017-06-27 04:18:00,
2017-06-27 00:23:00,57.4,50.2,29.97,WSW,248,0.0,1.1,77,0.00,,,0.00,meteobridge,2017-06-27 04:23:00,
2017-06-27 00:28:00,57.2,50.4,29.97,SW,225,0.0,0.0,78,0.00,,,0.00,meteobridge,2017-06-27 04:28:00,
2017-06-27 00:33:00,57.0,50.2,29.97,West,270,0.0,0.0,78,0.00,,,0.00,meteobridge,2017-06-27 04:33:00,
2017-06-27 00:38:00,57.0,50.5,29.97,North,0,0.0,0.0,79,0.00,,,0.00,meteobridge,2017-06-27 04:38:00,
2017-06-27 00:43:00,56.8,50.7,29.94,North,0,0.0,1.3,80,0.00,,,0.00,meteobridge,2017-06-27 04:43:00,
2017-06-27 00:48:00,56.8,50.4,29.94,North,0,0.0,0.0,79,0.00,,,0.00,meteobridge,2017-06-27 04:48:00,
2017-06-27 00:53:00,56.8,50.7,29.94,NNW,338,0.0,0.0,80,0.00,,,0.00,meteobridge,2017-06-27 04:53:00,
2017-06-27 00:58:00,56.8,51.1,29.94,West,270,0.0,1.1,81,0.00,,,0.00,meteobridge,2017-06-27 04:58:00,
2017-06-27 01:03:00,56.8,51.1,29.94,SSE,158,2.2,3.6,81,0.00,,,0.00,meteobridge,2017-06-27 05:03:00,
2017-06-27 01:08:00,56.8,51.4,29.94,West,270,0.0,1.1,82,0.00,,,0.00,meteobridge,2017-06-27 05:08:00,
2017-06-27 01:13:00,56.8,51.4,29.91,NW,315,0.0,1.6,82,0.00,,,0.00,meteobridge,2017-06-27 05:13:00,
2017-06-27 01:18:00,56.8,51.4,29.91,WNW,292,0.0,0.0,82,0.00,,,0.00,meteobridge,2017-06-27 05:18:00,
2017-06-27 01:23:00,56.8,51.4,29.91,NNW,338,0.0,0.9,82,0.00,,,0.00,meteobridge,2017-06-27 05:23:00,
2017-06-27 01:28:00,56.8,51.8,29.91,ESE,112,0.0,4.0,83,0.00,,,0.00,meteobridge,2017-06-27 05:28:00,
2017-06-27 01:33:00,56.8,51.8,29.91,South,180,0.0,1.3,83,0.00,,,0.00,meteobridge,2017-06-27 05:33:00,
2017-06-27 01:38:00,56.8,51.8,29.91,NW,315,0.0,2.2,83,0.00,,,0.00,meteobridge,2017-06-27 05:38:00,
2017-06-27 01:43:00,56.8,51.8,29.94,SW,225,0.0,1.3,83,0.00,,,0.00,meteobridge,2017-06-27 05:43:00,
2017-06-27 01:48:00,56.8,52.0,29.94,NW,315,1.1,3.6,84,0.00,,,0.00,meteobridge,2017-06-27 05:48:00,
2017-06-27 01:53:00,56.8,52.0,29.94,NW,315,0.0,1.6,84,0.00,,,0.00,meteobridge,2017-06-27 05:53:00,
2017-06-27 01:58:00,56.8,52.0,29.91,NNW,338,0.0,0.0,84,0.00,,,0.00,meteobridge,2017-06-27 05:58:00,
2017-06-27 02:03:00,56.8,52.0,29.91,SSE,158,0.9,2.5,84,0.00,,,0.00,meteobridge,2017-06-27 06:03:00,
2017-06-27 02:08:00,57.0,52.5,29.91,NW,315,2.7,3.6,85,0.00,,,0.00,meteobridge,2017-06-27 06:08:00,
2017-06-27 02:13:00,57.2,52.3,29.94,North,0,0.0,1.3,84,0.00,,,0.00,meteobridge,2017-06-27 06:13:00,
2017-06-27 02:18:00,57.2,52.2,29.94,SE,135,2.5,2.5,83,0.00,,,0.00,meteobridge,2017-06-27 06:18:00,
2017-06-27 02:24:00,57.2,52.2,29.94,North,0,0.0,0.9,83,0.00,,,0.00,meteobridge,2017-06-27 06:24:00,
2017-06-27 02:39:00,57.4,52.3,29.94,WNW,292,0.9,1.3,83,0.00,,,0.00,meteobridge,2017-06-27 06:39:00,
2017-06-27 02:44:00,57.4,52.0,29.94,NW,315,1.3,3.4,82,0.00,,,0.00,meteobridge,2017-06-27 06:44:00,
2017-06-27 02:49:00,57.4,52.0,29.94,SW,225,0.9,2.7,82,0.00,,,0.00,meteobridge,2017-06-27 06:49:00,
2017-06-27 02:54:00,57.2,51.8,29.94,WNW,292,0.0,0.0,82,0.00,,,0.00,meteobridge,2017-06-27 06:54:00,
2017-06-27 03:00:00,57.2,51.4,29.94,NNW,338,0.0,0.0,81,0.00,,,0.00,meteobridge,2017-06-27 07:00:00,
2017-06-27 03:05:00,57.2,51.4,29.94,WNW,292,1.1,1.6,81,0.00,,,0.00,meteobridge,2017-06-27 07:05:00,
2017-06-27 03:10:00,57.2,51.4,29.94,SW,225,0.0,1.1,81,0.00,,,0.00,meteobridge,2017-06-27 07:10:00,
2017-06-27 03:16:00,57.2,51.4,29.94,SE,135,0.0,0.9,81,0.00,,,0.00,meteobridge,2017-06-27 07:16:00,
2017-06-27 03:21:00,57.4,51.3,29.94,West,270,1.1,1.1,80,0.00,,,0.00,meteobridge,2017-06-27 07:21:00,
2017-06-27 03:26:00,57.6,51.4,29.94,SSW,202,2.5,2.5,80,0.00,,,0.00,meteobridge,2017-06-27 07:26:00,
2017-06-27 03:31:00,57.7,51.6,29.94,SSW,202,1.1,2.7,80,0.00,,,0.00,meteobridge,2017-06-27 07:31:00,
2017-06-27 03:36:00,57.7,51.6,29.94,South,180,0.0,1.1,80,0.00,,,0.00,meteobridge,2017-06-27 07:36:00,
2017-06-27 03:41:00,57.7,51.6,29.94,WNW,292,0.0,4.7,80,0.00,,,0.00,meteobridge,2017-06-27 07:41:00,
2017-06-27 03:46:00,57.9,51.8,29.94,West,270,1.3,1.3,80,0.00,,,0.00,meteobridge,2017-06-27 07:46:00,
2017-06-27 03:51:00,57.9,51.8,29.94,West,270,0.0,2.9,80,0.00,,,0.00,meteobridge,2017-06-27 07:51:00,
2017-06-27 03:56:00,57.9,52.2,29.94,West,270,0.0,0.9,81,0.00,,,0.00,meteobridge,2017-06-27 07:56:00,
2017-06-27 04:01:00,57.9,51.8,29.94,NW,315,0.0,2.2,80,0.00,,,0.00,meteobridge,2017-06-27 08:01:00,
2017-06-27 04:04:00,57.9,51.8,29.94,NNW,338,1.3,1.6,80,0.00,,,0.00,meteobridge,2017-06-27 08:04:00,
2017-06-27 04:09:00,57.9,52.2,29.94,NNW,338,0.0,1.1,81,0.00,,,0.00,meteobridge,2017-06-27 08:09:00,
2017-06-27 04:14:00,58.1,52.3,29.97,South,180,2.0,2.0,81,0.00,,,0.00,meteobridge,2017-06-27 08:14:00,
2017-06-27 04:19:00,58.1,52.3,29.97,NW,315,0.0,2.7,81,0.00,,,0.00,meteobridge,2017-06-27 08:19:00,
2017-06-27 04:24:00,58.1,52.3,29.97,WNW,292,1.3,1.3,81,0.00,,,0.00,meteobridge,2017-06-27 08:24:00,
2017-06-27 04:29:00,58.1,52.3,29.91,NW,315,0.9,1.6,81,0.00,,,0.00,meteobridge,2017-06-27 08:29:00,
2017-06-27 04:35:00,58.1,52.3,29.91,SW,225,1.1,1.6,81,0.00,,,0.00,meteobridge,2017-06-27 08:35:00,
2017-06-27 04:40:00,58.1,52.3,29.91,WNW,292,0.0,0.9,81,0.00,,,0.00,meteobridge,2017-06-27 08:40:00,
2017-06-27 04:45:00,58.1,52.3,29.94,SSW,202,0.0,1.3,81,0.00,,,0.00,meteobridge,2017-06-27 08:45:00,
2017-06-27 04:50:00,58.1,52.3,29.94,West,270,0.0,2.9,81,0.00,,,0.00,meteobridge,2017-06-27 08:50:00,
2017-06-27 04:55:00,57.9,52.2,29.94,West,270,0.0,1.6,81,0.00,,,0.00,meteobridge,2017-06-27 08:55:00,
2017-06-27 05:01:00,57.9,52.2,29.94,West,270,3.1,3.1,81,0.00,,,0.00,meteobridge,2017-06-27 09:01:00,
2017-06-27 05:02:00,57.9,52.2,29.94,WNW,292,0.0,3.1,81,0.00,,,0.00,meteobridge,2017-06-27 09:02:00,
2017-06-27 05:07:00,57.7,52.0,29.94,NW,315,0.9,0.9,81,0.00,,,0.00,meteobridge,2017-06-27 09:07:00,
2017-06-27 05:13:00,57.7,52.0,29.94,SW,225,2.5,2.5,81,0.00,,,0.00,meteobridge,2017-06-27 09:13:00,
2017-06-27 05:18:00,57.7,52.0,29.94,WNW,292,0.0,3.4,81,0.00,,,0.00,meteobridge,2017-06-27 09:18:00,
2017-06-27 05:31:00,57.6,51.8,29.94,West,270,2.7,2.7,81,0.00,,,0.00,meteobridge,2017-06-27 09:31:00,
2017-06-27 05:36:00,57.6,52.2,29.94,North,0,0.0,2.0,82,0.00,,,0.00,meteobridge,2017-06-27 09:36:00,
2017-06-27 05:41:00,57.6,52.2,29.91,SW,225,0.0,1.3,82,0.00,,,0.00,meteobridge,2017-06-27 09:41:00,
2017-06-27 05:46:00,57.6,51.8,29.91,WNW,292,0.0,0.0,81,0.00,,,0.00,meteobridge,2017-06-27 09:46:00,
2017-06-27 05:51:00,57.6,52.2,29.91,NW,315,0.0,2.2,82,0.00,,,0.00,meteobridge,2017-06-27 09:51:00,
2017-06-27 05:56:00,57.6,52.2,29.94,SE,135,1.6,1.6,82,0.00,,,0.00,meteobridge,2017-06-27 09:56:00,
2017-06-27 06:01:00,57.4,52.0,29.94,NW,315,0.0,2.9,82,0.00,,,0.00,meteobridge,2017-06-27 10:01:00,
2017-06-27 06:07:00,57.4,52.3,29.94,West,270,0.0,2.0,83,0.00,,,0.00,meteobridge,2017-06-27 10:07:00,
2017-06-27 06:12:00,57.2,52.3,29.94,South,180,0.9,1.6,84,0.00,,,0.00,meteobridge,2017-06-27 10:12:00,
2017-06-27 06:17:00,57.0,52.2,29.94,SSE,158,1.1,3.4,84,0.00,,,0.00,meteobridge,2017-06-27 10:17:00,
2017-06-27 06:22:00,57.0,52.2,29.94,West,270,0.0,2.7,84,0.00,,,0.00,meteobridge,2017-06-27 10:22:00,
2017-06-27 06:27:00,56.8,52.3,29.94,South,180,0.0,1.3,85,0.00,,,0.00,meteobridge,2017-06-27 10:27:00,
2017-06-27 06:32:00,56.7,52.2,29.94,NW,315,0.0,1.6,85,0.00,,,0.00,meteobridge,2017-06-27 10:32:00,
2017-06-27 06:37:00,56.7,52.5,29.94,WNW,292,2.7,2.7,86,0.00,,,0.00,meteobridge,2017-06-27 10:37:00,
2017-06-27 06:42:00,56.5,52.7,29.94,West,270,0.0,3.6,87,0.00,,,0.00,meteobridge,2017-06-27 10:42:00,
2017-06-27 06:47:00,56.3,52.5,29.94,WSW,248,1.1,1.1,87,0.00,,,0.00,meteobridge,2017-06-27 10:47:00,
2017-06-27 06:53:00,56.3,52.9,29.94,West,270,0.0,1.6,88,0.00,,,0.00,meteobridge,2017-06-27 10:53:00,
2017-06-27 06:58:00,56.1,52.7,29.97,NNE,22,0.0,0.0,88,0.00,,,0.00,meteobridge,2017-06-27 10:58:00,
2017-06-27 07:03:00,56.1,52.7,29.97,WSW,248,1.3,1.6,88,0.00,,,0.00,meteobridge,2017-06-27 11:03:00,
2017-06-27 07:08:00,56.1,52.7,29.97,NW,315,0.0,0.0,88,0.00,,,0.00,meteobridge,2017-06-27 11:08:00,
2017-06-27 07:13:00,56.1,52.7,29.97,South,180,2.2,2.2,88,0.00,,,0.00,meteobridge,2017-06-27 11:13:00,
2017-06-27 07:18:00,56.3,52.9,29.97,SW,225,0.0,1.1,88,0.00,,,0.00,meteobridge,2017-06-27 11:18:00,
2017-06-27 07:23:00,56.5,52.9,29.97,West,270,0.0,0.9,88,0.00,,,0.00,meteobridge,2017-06-27 11:23:00,
2017-06-27 07:28:00,56.7,53.1,29.97,South,180,0.0,1.6,88,0.00,,,0.00,meteobridge,2017-06-27 11:28:00,
2017-06-27 07:33:00,56.8,53.6,29.97,South,180,1.6,3.1,89,0.00,,,0.00,meteobridge,2017-06-27 11:33:00,
2017-06-27 07:38:00,57.0,53.4,29.97,NNW,338,0.0,2.7,88,0.00,,,0.00,meteobridge,2017-06-27 11:38:00,
2017-06-27 07:44:00,57.2,53.4,29.94,West,270,0.0,0.0,87,0.00,,,0.00,meteobridge,2017-06-27 11:44:00,
2017-06-27 07:49:00,57.6,53.8,29.94,NNW,338,0.0,0.0,87,0.00,,,0.00,meteobridge,2017-06-27 11:49:00,
2017-06-27 07:54:00,57.7,53.6,29.94,West,270,2.5,5.6,86,0.00,,,0.00,meteobridge,2017-06-27 11:54:00,
2017-06-27 07:59:00,57.7,53.2,29.94,SSE,158,0.0,0.0,85,0.00,,,0.00,meteobridge,2017-06-27 11:59:00,
2017-06-27 08:04:00,57.7,52.9,29.94,NW,315,0.0,0.9,84,0.00,,,0.00,meteobridge,2017-06-27 12:04:00,
2017-06-27 08:09:00,57.7,52.9,29.94,NW,315,1.3,4.7,84,0.00,,,0.00,meteobridge,2017-06-27 12:09:00,
2017-06-27 08:14:00,57.7,52.9,29.94,SE,135,2.9,2.9,84,0.00,,,0.00,meteobridge,2017-06-27 12:14:00,
2017-06-27 08:19:00,57.9,53.1,29.94,WNW,292,1.1,2.7,84,0.00,,,0.00,meteobridge,2017-06-27 12:19:00,
2017-06-27 08:24:00,58.5,53.6,29.94,North,0,1.6,3.1,84,0.00,,,0.00,meteobridge,2017-06-27 12:24:00,
2017-06-27 08:29:00,59.0,53.8,29.94,WNW,292,1.1,3.4,83,0.00,,,0.00,meteobridge,2017-06-27 12:29:00,
2017-06-27 08:34:00,59.4,54.1,29.94,SW,225,1.1,3.8,83,0.00,,,0.00,meteobridge,2017-06-27 12:34:00,
2017-06-27 08:39:00,59.5,53.8,29.94,NW,315,2.0,4.0,81,0.00,,,0.00,meteobridge,2017-06-27 12:39:00,
2017-06-27 08:44:00,60.1,54.3,29.94,West,270,2.0,3.8,81,0.00,,,0.00,meteobridge,2017-06-27 12:44:00,
2017-06-27 08:49:00,60.1,54.3,29.94,SW,225,0.0,1.3,81,0.00,,,0.00,meteobridge,2017-06-27 12:49:00,
2017-06-27 08:54:00,60.4,54.0,29.94,SSW,202,1.3,2.0,79,0.00,,,0.00,meteobridge,2017-06-27 12:54:00,
2017-06-27 08:59:00,60.1,53.2,29.94,West,270,0.0,2.2,78,0.00,,,0.00,meteobridge,2017-06-27 12:59:00,
2017-06-27 09:04:00,60.1,53.6,29.94,NW,315,1.6,1.6,79,0.00,,,0.00,meteobridge,2017-06-27 13:04:00,
2017-06-27 09:09:00,60.4,54.0,29.94,NW,315,0.0,1.6,79,0.00,,,0.00,meteobridge,2017-06-27 13:09:00,
2017-06-27 09:14:00,60.6,53.8,29.94,WNW,292,0.0,5.8,78,0.00,,,0.00,meteobridge,2017-06-27 13:14:00,
2017-06-27 09:19:00,60.4,53.2,29.94,NNE,22,1.3,1.6,77,0.00,,,0.00,meteobridge,2017-06-27 13:19:00,
2017-06-27 09:24:00,61.7,54.1,29.94,SSE,158,2.2,3.6,76,0.00,,,0.00,meteobridge,2017-06-27 13:24:00,
2017-06-27 09:29:00,63.1,55.0,29.94,NNW,338,0.9,0.9,75,0.00,,,0.00,meteobridge,2017-06-27 13:29:00,
2017-06-27 09:34:00,64.4,55.6,29.94,SW,225,1.3,2.0,73,0.00,,,0.00,meteobridge,2017-06-27 13:34:00,
2017-06-27 09:35:00,64.4,55.6,29.94,SW,225,0.9,2.0,73,0.00,,,0.00,meteobridge,2017-06-27 13:35:00,
2017-06-27 09:40:00,65.1,55.0,29.94,WNW,292,2.0,2.2,70,0.00,,,0.00,meteobridge,2017-06-27 13:40:00,
2017-06-27 09:45:00,65.5,55.0,29.97,West,270,0.0,2.2,69,0.00,,,0.00,meteobridge,2017-06-27 13:45:00,
2017-06-27 09:50:00,65.5,54.7,29.97,SSW,202,2.9,4.3,68,0.00,,,0.00,meteobridge,2017-06-27 13:50:00,
2017-06-27 09:55:00,66.6,55.6,29.97,NW,315,1.3,2.7,68,0.00,,,0.00,meteobridge,2017-06-27 13:55:00,
2017-06-27 10:00:00,66.6,54.0,29.94,NW,315,2.0,2.0,64,0.00,,,0.00,meteobridge,2017-06-27 14:00:00,
2017-06-27 10:05:00,67.1,55.4,29.94,West,270,2.5,3.4,66,0.00,,,0.00,meteobridge,2017-06-27 14:05:00,
2017-06-27 10:10:00,66.9,54.0,29.94,West,270,1.6,3.1,63,0.00,,,0.00,meteobridge,2017-06-27 14:10:00,
2017-06-27 10:15:00,67.1,53.6,29.97,West,270,4.9,4.9,62,0.00,,,0.00,meteobridge,2017-06-27 14:15:00,
2017-06-27 10:20:00,67.8,55.2,29.97,West,270,0.0,4.0,64,0.00,,,0.00,meteobridge,2017-06-27 14:20:00,
2017-06-27 10:25:00,67.6,54.7,29.97,SW,225,2.5,3.6,63,0.00,,,0.00,meteobridge,2017-06-27 14:25:00,
2017-06-27 10:30:00,65.8,51.6,29.91,WNW,292,3.8,5.8,60,0.00,,,0.00,meteobridge,2017-06-27 14:30:00,
2017-06-27 10:35:00,65.3,52.0,29.91,West,270,0.0,2.2,62,0.00,,,0.00,meteobridge,2017-06-27 14:35:00,
2017-06-27 10:40:00,65.7,53.2,29.91,NNW,338,1.6,2.7,64,0.00,,,0.00,meteobridge,2017-06-27 14:40:00,
2017-06-27 10:45:00,65.8,52.0,29.94,SW,225,0.0,1.1,61,0.00,,,0.00,meteobridge,2017-06-27 14:45:00,
2017-06-27 10:50:00,65.8,51.6,29.94,WNW,292,1.3,6.5,60,0.00,,,0.00,meteobridge,2017-06-27 14:50:00,
2017-06-27 10:55:00,65.5,52.2,29.94,NNW,338,3.1,4.0,62,0.00,,,0.00,meteobridge,2017-06-27 14:55:00,
2017-06-27 11:00:00,65.1,50.9,29.94,WNW,292,0.9,3.1,60,0.00,,,0.00,meteobridge,2017-06-27 15:00:00,
2017-06-27 11:06:00,64.4,50.2,29.94,SW,225,0.0,2.2,60,0.00,,,0.00,meteobridge,2017-06-27 15:06:00,
2017-06-27 11:11:00,63.9,50.5,29.94,WNW,292,0.0,2.2,62,0.00,,,0.00,meteobridge,2017-06-27 15:11:00,
2017-06-27 11:16:00,64.9,52.5,29.94,WSW,248,2.0,2.7,64,0.00,,,0.00,meteobridge,2017-06-27 15:16:00,
2017-06-27 11:21:00,66.4,53.4,29.94,West,270,3.8,3.8,63,0.00,,,0.00,meteobridge,2017-06-27 15:21:00,
2017-06-27 11:26:00,65.7,50.5,29.94,SW,225,3.8,3.8,58,0.00,,,0.00,meteobridge,2017-06-27 15:26:00,
2017-06-27 11:31:00,63.5,47.5,29.94,South,180,3.4,4.0,56,0.00,,,0.00,meteobridge,2017-06-27 15:31:00,
2017-06-27 11:36:00,62.4,47.5,29.94,WNW,292,2.0,5.4,58,0.00,,,0.00,meteobridge,2017-06-27 15:36:00,
2017-06-27 11:41:00,61.7,47.7,29.94,West,270,1.3,2.5,60,0.00,,,0.00,meteobridge,2017-06-27 15:41:00,
2017-06-27 11:46:00,62.4,49.6,29.94,SW,225,5.6,5.6,63,0.00,,,0.00,meteobridge,2017-06-27 15:46:00,
2017-06-27 11:51:00,63.1,50.7,29.94,West,270,1.6,2.0,64,0.00,,,0.00,meteobridge,2017-06-27 15:51:00,
2017-06-27 11:56:00,64.6,50.9,29.94,West,270,3.1,4.7,61,0.00,,,0.00,meteobridge,2017-06-27 15:56:00,
2017-06-27 12:01:00,64.6,50.0,29.94,NNE,22,2.5,2.5,59,0.00,,,0.00,meteobridge,2017-06-27 16:01:00,
2017-06-27 12:06:00,64.6,50.0,29.94,SW,225,3.1,3.6,59,0.00,,,0.00,meteobridge,2017-06-27 16:06:00,
2017-06-27 12:11:00,64.6,50.0,29.97,SW,225,1.1,5.8,59,0.00,,,0.00,meteobridge,2017-06-27 16:11:00,
2017-06-27 12:16:00,64.6,48.9,29.97,West,270,1.1,3.6,57,0.00,,,0.00,meteobridge,2017-06-27 16:16:00,
2017-06-27 12:21:00,64.8,49.1,29.97,SSW,202,2.5,4.0,57,0.00,,,0.00,meteobridge,2017-06-27 16:21:00,
2017-06-27 12:26:00,65.1,49.1,29.94,West,270,3.4,4.0,56,0.00,,,0.00,meteobridge,2017-06-27 16:26:00,
2017-06-27 12:31:00,65.3,49.3,29.94,WNW,292,3.6,3.6,56,0.00,,,0.00,meteobridge,2017-06-27 16:31:00,
2017-06-27 12:36:00,66.4,51.1,29.94,West,270,3.6,3.6,58,0.00,,,0.00,meteobridge,2017-06-27 16:36:00,
2017-06-27 12:41:00,67.6,51.8,29.94,NW,315,2.7,3.6,57,0.00,,,0.00,meteobridge,2017-06-27 16:41:00,
2017-06-27 12:46:00,68.0,51.3,29.94,WNW,292,1.3,3.1,55,0.00,,,0.00,meteobridge,2017-06-27 16:46:00,
2017-06-27 12:51:00,68.2,50.9,29.94,NNE,22,3.1,4.9,54,0.00,,,0.00,meteobridge,2017-06-27 16:51:00,
2017-06-27 12:56:00,67.8,50.0,29.94,SW,225,0.0,3.8,53,0.00,,,0.00,meteobridge,2017-06-27 16:56:00,
2017-06-27 13:02:00,67.8,49.6,29.94,NW,315,3.4,4.9,52,0.00,,,0.00,meteobridge,2017-06-27 17:02:00,
2017-06-27 13:07:00,68.4,50.0,29.94,WNW,292,2.9,2.9,52,0.00,,,0.00,meteobridge,2017-06-27 17:07:00,
2017-06-27 13:12:00,68.9,51.1,29.94,SW,225,2.2,3.6,53,0.00,,,0.00,meteobridge,2017-06-27 17:12:00,
2017-06-27 13:17:00,69.1,50.7,29.94,SSE,158,2.7,3.1,52,0.00,,,0.00,meteobridge,2017-06-27 17:17:00,
2017-06-27 13:22:00,69.8,50.4,29.94,SW,225,3.8,6.0,50,0.00,,,0.00,meteobridge,2017-06-27 17:22:00,
2017-06-27 13:27:00,70.0,49.5,29.94,NE,45,3.1,5.4,48,0.00,,,0.00,meteobridge,2017-06-27 17:27:00,
2017-06-27 13:32:00,70.0,49.5,29.94,West,270,0.0,3.8,48,0.00,,,0.00,meteobridge,2017-06-27 17:32:00,
2017-06-27 13:37:00,70.0,48.7,29.94,WSW,248,1.6,3.1,47,0.00,,,0.00,meteobridge,2017-06-27 17:37:00,
2017-06-27 13:42:00,69.4,48.9,29.94,WNW,292,3.6,3.6,48,0.00,,,0.00,meteobridge,2017-06-27 17:42:00,
2017-06-27 13:47:00,68.2,47.7,29.94,North,0,1.6,3.1,48,0.00,,,0.00,meteobridge,2017-06-27 17:47:00,
2017-06-27 13:52:00,66.7,48.0,29.94,WSW,248,3.6,4.0,51,0.00,,,0.00,meteobridge,2017-06-27 17:52:00,
2017-06-27 13:57:00,64.9,49.3,29.97,East,90,3.1,3.6,57,0.00,,,0.00,meteobridge,2017-06-27 17:57:00,
2017-06-27 14:02:00,64.0,51.3,29.97,NNW,338,0.0,3.4,63,0.00,,,0.00,meteobridge,2017-06-27 18:02:00,
2017-06-27 14:07:00,63.5,52.0,29.97,WNW,292,1.1,3.1,66,0.00,,,0.00,meteobridge,2017-06-27 18:07:00,
2017-06-27 14:12:00,63.0,52.2,29.94,WNW,292,0.0,2.7,68,0.00,,,0.00,meteobridge,2017-06-27 18:12:00,
2017-06-27 14:17:00,63.0,52.7,29.94,NNW,338,1.6,1.6,69,0.00,,,0.00,meteobridge,2017-06-27 18:17:00,
2017-06-27 14:22:00,64.8,54.3,29.94,WNW,292,2.7,2.7,69,0.00,,,0.00,meteobridge,2017-06-27 18:22:00,
2017-06-27 14:27:00,65.8,56.1,29.94,South,180,2.9,2.9,71,0.00,,,0.00,meteobridge,2017-06-27 18:27:00,
2017-06-27 14:32:00,66.2,54.5,29.94,WSW,248,2.0,3.1,66,0.00,,,0.00,meteobridge,2017-06-27 18:32:00,
2017-06-27 14:37:00,67.3,55.0,29.94,South,180,1.6,2.2,65,0.00,,,0.00,meteobridge,2017-06-27 18:37:00,
2017-06-27 14:42:00,68.4,55.2,29.94,NW,315,3.1,4.0,63,0.00,,,0.00,meteobridge,2017-06-27 18:42:00,
2017-06-27 14:47:00,68.5,53.6,29.94,WSW,248,3.1,3.8,59,0.00,,,0.00,meteobridge,2017-06-27 18:47:00,
2017-06-27 14:53:00,68.7,53.4,29.94,WNW,292,1.6,1.6,58,0.00,,,0.00,meteobridge,2017-06-27 18:53:00,
2017-06-27 14:58:00,69.1,51.3,29.91,South,180,2.7,7.4,53,0.00,,,0.00,meteobridge,2017-06-27 18:58:00,
2017-06-27 15:03:00,69.4,51.6,29.91,WSW,248,4.3,4.3,53,0.00,,,0.00,meteobridge,2017-06-27 19:03:00,
2017-06-27 15:08:00,69.8,52.0,29.91,WSW,248,0.0,4.0,53,0.00,,,0.00,meteobridge,2017-06-27 19:08:00,